(312) Pierretta
ephemeris date magn radius delta ra dec elong phase
Today19 Jun 202614.72.853 AU3.320 AU02h00m+13°44'54.5°16.9°
Opposition3 Nov 202613.23.048 AU2.062 AU02h27m+22°44'172.2°2.5°
(312) Pierretta - 2026-06-19
astro.vanbuitenen.nl


 
-1 year
-1 month
-1 day
Now
+1 day
+1 month
+1 year

The interactive orbit chart above shows the body's path through the solar system and its position at the given date. Green and blue lines are shown perpendicular to the ecliptic plane: Green if the path is above the ecliptic plane, blue if it is below. (Left-click and drag to rotate the view; Right-click and drag to move the view; Use scroll wheel to zoom in our out.)

The orbital elements of Pierretta are:

            e (Eccentricity)                : 0.1602788
            a (Semimajor axis)              : 2.7816262
            i (Inclination)                 : 9.03533
            Ω (Longitude of ascending node) : 6.19354
            ω (Argument of perihelion)      : 261.83463
            M (Mean anomaly)                : 87.97588
            Epoch                           : 2026 Jun 09

            L (Longitude of perihelion)     : 87.92699
            B (Latitude of perihelion)      : -8.94298
            P (Orbital period in years)     : 4.64            
        

The light curve chart below shows the estimated development of the minor planet's magnitude.


The all-sky chart below shows the path of the minor planet over the same period as the light curve. The current position is marked yellow.





The following chart shows the path of the minor planet in the next few days. The field of view is optimized for (~10x50) binoculars and finderscopes.




Ephemerides:
Date       Time       RA (2000)    DEC (2000)    delta   radius  elong  phase   PA    magn
2026-06-19 00:00 UT   02 00 56.5   +13 44 32     3.320    2.853   54.5   16.9   251   14.7 
2026-06-19 19:23 UT   02 01 55.2   +13 51 20     3.313    2.854   55.0   17.0   251   14.7 
2026-06-20 00:00 UT   02 02 09.1   +13 52 58     3.311    2.854   55.1   17.0   251   14.7 
2026-06-21 00:00 UT   02 03 21.2   +14 01 20     3.301    2.856   55.7   17.1   251   14.7 
2026-06-22 00:00 UT   02 04 33.0   +14 09 40     3.292    2.857   56.4   17.2   251   14.7 
2026-06-23 00:00 UT   02 05 44.3   +14 17 56     3.282    2.859   57.0   17.3   251   14.7 
2026-06-24 00:00 UT   02 06 55.2   +14 26 09     3.272    2.861   57.7   17.5   251   14.7 
2026-06-25 00:00 UT   02 08 05.6   +14 34 20     3.262    2.862   58.3   17.6   251   14.7 
2026-06-26 00:00 UT   02 09 15.6   +14 42 27     3.253    2.864   58.9   17.7   251   14.7 
2026-06-27 00:00 UT   02 10 25.2   +14 50 31     3.243    2.865   59.6   17.8   251   14.7 
2026-06-28 00:00 UT   02 11 34.3   +14 58 32     3.232    2.867   60.2   17.9   251   14.7 
2026-06-29 00:00 UT   02 12 42.9   +15 06 30     3.222    2.868   60.9   18.0   251   14.7 
2026-06-30 00:00 UT   02 13 51.0   +15 14 25     3.212    2.870   61.5   18.1   252   14.7 
2026-07-01 00:00 UT   02 14 58.7   +15 22 17     3.202    2.872   62.2   18.2   252   14.7 
2026-07-02 00:00 UT   02 16 05.8   +15 30 05     3.191    2.873   62.8   18.3   252   14.7 
2026-07-03 00:00 UT   02 17 12.5   +15 37 51     3.181    2.875   63.5   18.5   252   14.7 
2026-07-04 00:00 UT   02 18 18.6   +15 45 34     3.170    2.876   64.2   18.5   252   14.7 
2026-07-05 00:00 UT   02 19 24.2   +15 53 13     3.159    2.878   64.8   18.6   252   14.7 
2026-07-06 00:00 UT   02 20 29.3   +16 00 49     3.149    2.879   65.5   18.7   252   14.7 
2026-07-07 00:00 UT   02 21 33.8   +16 08 22     3.138    2.881   66.2   18.8   252   14.7 
2026-07-08 00:00 UT   02 22 37.8   +16 15 52     3.127    2.883   66.8   18.9   252   14.7 
2026-07-09 00:00 UT   02 23 41.2   +16 23 19     3.116    2.884   67.5   19.0   252   14.7 
2026-07-10 00:00 UT   02 24 44.1   +16 30 42     3.105    2.886   68.2   19.1   252   14.7 
2026-07-11 00:00 UT   02 25 46.3   +16 38 03     3.094    2.887   68.9   19.2   252   14.7 
2026-07-12 00:00 UT   02 26 47.9   +16 45 20     3.083    2.889   69.5   19.3   252   14.7 
2026-07-13 00:00 UT   02 27 49.0   +16 52 34     3.071    2.890   70.2   19.3   252   14.7 
2026-07-14 00:00 UT   02 28 49.3   +16 59 44     3.060    2.892   70.9   19.4   252   14.7 
2026-07-15 00:00 UT   02 29 49.1   +17 06 51     3.049    2.893   71.6   19.5   252   14.7 
2026-07-16 00:00 UT   02 30 48.2   +17 13 55     3.037    2.895   72.3   19.5   252   14.7 
2026-07-17 00:00 UT   02 31 46.6   +17 20 56     3.026    2.896   73.0   19.6   252   14.7 


    Terminology:
            
    delta:  distance between minor planet and earth in AU
    radius: distance between minor planet and sun in AU
    magn:   magnitude (brightness) estimate    
    ra:     right ascension in hours (24h = 360deg)
    dec:    declination in degrees
    elong:  elongation in degrees (angle sun-earth-minor planet)    
    phase:  phase angle in degrees (angle sun-minor planet-earth)        
    AU:     Astronomical Unit (mean distance between earth and sun: 149597870.7 km
    

Orbital elements provided by the MPC (Minor Planet Center).
Calculations by a modified version of AAPlus, a C# implementation of the AA+ project by PJ Naughter from the algorithms presented in the book "Astronomical Algorithms" by Jean Meeus.
NGC2000 dso catalog and star labels from VizieR as provided by the Strasbourg astronomical Data Center.
Tycho2 catalog from the ESO archive.